Location: Newark
(54.4000°N, 32.4500°E)
Time: 03:32:45
(UTC+00:00)

Envisat - Visible Passes

Search period start: 18 January 2020 00:00
Search period end: 28 January 2020 00:00
Orbit: 764 x 766 km, 98.1° (Epoch: 17 January)

Date Brightness Start Highest point End Pass type
(mag) Time Alt. Az. Time Alt. Az. Time Alt. Az.
18 Jan 5.0 03:51:04 10° NNE 03:55:33 30° E 04:00:01 10° SSE visible
18 Jan 2.9 15:12:10 10° SSE 15:17:14 75° ENE 15:22:21 10° NNW visible
18 Jan 5.6 16:53:04 10° SW 16:56:50 21° W 17:00:39 10° NW visible
19 Jan 6.0 03:15:09 10° NE 03:18:20 16° E 03:21:30 10° SE visible
19 Jan 3.1 04:53:00 10° NNE 04:58:08 87° ESE 05:03:14 10° SSW visible
19 Jan 3.4 14:35:51 10° SE 14:40:36 41° ENE 14:45:22 10° N visible
19 Jan 4.5 16:14:58 10° SSW 16:19:42 38° W 16:24:27 10° NNW visible
20 Jan 4.2 04:16:19 10° NNE 04:21:14 47° E 04:26:08 10° S visible
20 Jan 3.3 15:37:40 10° S 15:42:44 72° WSW 15:47:51 10° NNW visible
20 Jan 6.1 17:20:20 10° WSW 17:22:43 13° W 17:25:06 10° NW visible
21 Jan 5.4 03:39:56 10° NE 03:44:09 25° E 03:48:21 10° SSE visible
21 Jan 3.0 15:00:57 10° SSE 15:05:58 63° ENE 15:11:01 10° N visible
21 Jan 5.3 16:41:17 10° SW 16:45:25 25° W 16:49:36 10° NW visible
22 Jan 6.2 03:04:22 10° NE 03:06:52 14° E 03:09:21 10° ESE visible
22 Jan 3.3 04:41:42 10° NNE 04:46:50 73° ESE 04:51:54 10° S visible
22 Jan 4.2 16:03:27 10° S 16:08:20 46° W 16:13:15 10° NNW visible
23 Jan 4.6 04:05:06 10° NNE 04:09:53 39° E 04:14:37 10° SSE visible
23 Jan 3.1 15:26:20 10° SSE 15:31:26 85° WSW 15:36:34 10° NNW visible
23 Jan 5.9 17:08:09 10° WSW 17:11:15 16° W 17:14:22 10° NW visible
24 Jan 5.6 03:28:53 10° NE 03:32:44 21° E 03:36:34 10° SE visible
24 Jan 3.0 05:07:13 10° NNE 05:12:19 74° WNW 05:17:23 10° SSW visible
24 Jan 3.1 14:49:48 10° SE 14:54:43 53° ENE 14:59:40 10° N visible
24 Jan 5.0 16:29:35 10° SSW 16:34:00 30° W 16:38:28 10° NNW visible
25 Jan 6.4 02:54:01 10° ENE 02:55:23 11° E 02:56:45 10° E visible
25 Jan 3.6 04:30:26 10° NNE 04:35:30 61° ESE 04:40:32 10° S visible
25 Jan 3.8 15:52:00 10° S 15:56:59 55° W 16:02:00 10° NNW visible
26 Jan 4.9 03:53:55 10° NNE 03:58:30 32° E 04:03:03 10° SSE visible
26 Jan 3.0 15:15:03 10° SSE 15:20:08 81° ENE 15:25:15 10° NNW visible
26 Jan 5.7 16:56:11 10° SW 16:59:48 19° W 17:03:26 10° NW visible
27 Jan 5.9 03:17:54 10° NE 03:21:18 18° E 03:24:41 10° SE visible
27 Jan 3.0 04:55:54 10° NNE 05:01:02 87° WNW 05:06:08 10° SSW visible
27 Jan 4.7 16:17:58 10° SSW 16:22:37 35° W 16:27:19 10° NNW visible
